[[{"header":{"parameterUnit":"m.s-1","parameterCategory":2,"la1":30.2991,"la2":30.254,"lo1":-89.0895,"lo2":-89.0444,"dy":0.0017,"dx":0.0017,"nx":28,"ny":28,"refTime":"2024-02-01T09:00:00:Z","depth":"0","parameterNumber":2,"parameterNumberName":"U-component_of_CURRENTS"},"data":[0,0,0,0,0,0,0,0,0,0,0,0,0,0,0,0,0,0,0,0,0,0,0,0,0,0,0,0,0,0,0,0,0,0,0,0,0,0,0,0,0,0,0,0,0,0,0,0,0,0,0,0,0,0,0,0,0,0,-0.2808,-0.2805,0,-0.2565,-0.2562,-0.256,-0.2504,-0.2505,-0.2507,-0.2509,-0.2321,-0.2315,-0.2308,0,0,0,0,0,0,0,0,0,0,0,0,0,-0.2967,-0.2966,-0.2808,-0.2805,-0.2802,-0.2565,-0.2562,-0.2559,-0.2504,-0.2506,-0.2508,-0.2509,-0.2323,-0.2316,-0.2308,0,0,0,0,0,0,0,0,0,0,0,0,0,-0.283,-0.2966,-0.2808,-0.2745,-0.2737,-0.2566,-0.2562,-0.2558,-0.2503,-0.2506,-0.2508,-0.251,-0.2326,-0.2316,-0.2307,-0.2196,0,0,-0.2277,-0.2273,0,0,0,0,0,0,0,0,-0.2838,-0.2824,-0.2758,-0.2749,-0.274,-0.2567,-0.2549,-0.244,-0.2502,-0.2592,-0.2509,-0.2512,-0.2406,-0.239,-0.2339,-0.2188,-0.218,-0.2276,-0.227,-0.2266,-0.2263,0,0,0,0,0,0,0,-0.2848,-0.2832,-0.2712,-0.2754,-0.2743,-0.2641,-0.2627,-0.2527,-0.249,-0.2585,-0.258,-0.2552,-0.2403,-0.2348,-0.2334,-0.2177,-0.2276,-0.2268,-0.2261,-0.2258,-0.1888,-0.1884,0,0,0,0,0,0,-0.2887,-0.2843,-0.272,-0.2705,-0.2796,-0.2638,-0.2621,-0.262,-0.2489,-0.2471,-0.255,-0.255,-0.2364,-0.2346,-0.2327,-0.2138,-0.2266,-0.2257,-0.2251,-0.1892,-0.1887,-0.1883,0,0,0,0,0,0,-0.2892,-0.288,-0.2729,-0.2766,-0.274,-0.2634,-0.2632,-0.2614,-0.2546,-0.2462,-0.2446,-0.25,-0.2365,-0.2341,-0.2196,-0.2133,-0.2252,-0.2243,-0.1896,-0.189,-0.1885,-0.1792,0,0,0,0,0,0,-0.2898,-0.2884,-0.2863,-0.277,-0.274,-0.2575,-0.2629,-0.2608,-0.2526,-0.2523,-0.2413,-0.2399,-0.2365,-0.221,-0.2186,-0.2122,-0.2236,-0.1901,-0.1894,-0.1887,-0.18,-0.1784,-0.177,0,0,0,0,0,-0.2905,-0.2845,-0.2865,-0.2847,-0.2728,-0.257,-0.2541,-0.2476,-0.2521,-0.2436,-0.2384,-0.2402,-0.2148,-0.2197,-0.217,-0.2102,-0.1905,-0.1896,-0.1887,-0.1807,-0.1787,-0.177,0,0,0,0,0,0,-0.2914,-0.2832,-0.2851,-0.2778,-0.2671,-0.256,-0.2464,-0.2459,-0.235,-0.236,-0.2325,-0.2301,-0.216,-0.2131,-0.2187,-0.1975,-0.2038,-0.2024,-0.1987,-0.1968,-0.1953,-0.1967,-0.2228,0,0,0,0,0,-0.2911,-0.284,-0.276,-0.2696,-0.2639,-0.2563,-0.249,-0.2456,-0.2363,-0.2319,-0.2256,-0.2188,-0.2098,-0.2036,-0.1948,-0.1808,-0.1812,-0.1754,-0.1739,-0.1726,-0.1717,-0.1653,-0.1632,-0.1853,-0.1854,-0.1854,0,0,-0.2898,-0.2843,-0.2805,-0.2689,-0.2607,-0.249,-0.2521,-0.2392,-0.2308,-0.2313,-0.2165,-0.2121,-0.2049,-0.1901,-0.1838,-0.1869,-0.1665,-0.1715,-0.1705,-0.1703,-0.1642,-0.1621,-0.1602,-0.1847,-0.1849,-0.1849,0,0,-0.281,-0.2785,-0.2688,-0.2594,-0.2465,-0.2404,-0.2371,-0.2253,-0.2201,-0.2055,-0.2062,-0.197,-0.1817,-0.1755,-0.171,-0.155,-0.159,-0.1537,-0.1459,-0.1395,-0.1378,-0.1362,-0.1351,-0.1335,-0.1526,-0.1525,-0.1525,0,-0.278,-0.2699,-0.2625,-0.2508,-0.243,-0.2372,-0.2261,-0.2167,-0.2026,-0.1986,-0.1991,-0.1806,-0.1744,-0.1602,-0.155,-0.1515,-0.1514,-0.154,-0.1379,-0.1363,-0.1349,-0.1341,-0.1325,-0.152,-0.1521,-0.1521,-0.1522,0,-0.2645,-0.256,-0.2478,-0.2338,-0.2232,-0.2109,-0.2007,-0.1911,-0.1875,-0.182,-0.1679,-0.159,-0.1504,-0.1459,-0.1445,-0.1315,-0.136,-0.1376,-0.1437,-0.1322,-0.1321,-0.1305,-0.1512,-0.1514,-0.1516,-0.1517,0,0,-0.2615,-0.2421,-0.2394,-0.2317,-0.2146,-0.2042,-0.1899,-0.1758,-0.1704,-0.157,-0.1496,-0.1325,-0.1343,-0.1293,-0.1275,-0.12,-0.1095,-0.1242,-0.1241,-0.1252,-0.0995,-0.1059,-0.105,-0.1094,-0.109,-0.1087,-0.1041,0,-0.2523,-0.2318,-0.2248,-0.2051,-0.1934,-0.1854,-0.1735,-0.1618,-0.154,-0.1444,-0.1364,-0.1276,-0.1261,-0.1244,-0.1155,-0.1133,-0.1049,-0.1109,-0.1086,-0.1086,-0.1173,-0.103,-0.1041,-0.1002,-0.1026,-0.1024,-0.1022,0,-0.2428,-0.2297,-0.2108,-0.1939,-0.1886,-0.1769,-0.1622,-0.1513,-0.1387,-0.1346,-0.1258,-0.1231,-0.1113,-0.1125,-0.0987,-0.1037,-0.0993,-0.0961,-0.0959,-0.1041,-0.1119,-0.1114,-0.0975,-0.0938,-0.1,-0.1002,-0.1003,0,-0.2436,-0.2212,-0.2069,-0.1995,-0.1785,-0.1706,-0.1611,-0.1483,-0.14,-0.1305,-0.128,-0.1154,-0.1124,-0.1017,-0.0976,-0.0976,-0.0857,-0.0856,-0.0857,-0.0865,-0.0878,-0.0892,-0.0715,-0.0716,-0.0716,-0.0716,-0.0716,0,-0.2349,-0.2223,-0.2059,-0.1956,-0.1781,-0.1696,-0.1543,-0.1452,-0.1367,-0.1281,-0.1247,-0.1203,-0.1094,-0.1036,-0.0962,-0.089,-0.0847,-0.0814,-0.0831,-0.0848,-0.0859,-0.0836,-0.0842,-0.0715,-0.0715,-0.0715,-0.0716,0,-0.2277,-0.2203,-0.2007,-0.1817,-0.1754,-0.1619,-0.145,-0.1351,-0.1345,-0.1246,-0.1228,-0.1214,-0.1177,-0.1091,-0.0968,-0.0905,-0.08,-0.0795,-0.0856,-0.0879,-0.0834,-0.0837,-0.0728,-0.0691,-0.0757,-0.0758,-0.0759,0,-0.2179,-0.2087,-0.188,-0.1767,-0.1642,-0.1474,-0.1346,-0.1289,-0.1209,-0.1256,-0.12,-0.1222,-0.1231,-0.1137,-0.101,-0.0897,-0.0845,-0.0833,-0.0796,-0.0801,-0.0815,-0.0823,-0.0799,-0.0781,-0.0782,-0.0783,-0.0784,0,-0.1955,-0.1926,-0.1761,-0.1571,-0.141,-0.1234,-0.1092,-0.1034,-0.1025,-0.1077,-0.1183,-0.1261,-0.1251,-0.12,-0.1077,-0.098,-0.0827,-0.0846,-0.0796,-0.076,-0.0807,-0.0793,-0.089,-0.079,-0.0789,-0.0789,-0.0789,-0.0788,-0.1771,-0.1626,-0.1492,-0.1285,-0.1162,-0.1004,-0.0864,-0.0819,-0.0794,-0.088,-0.1124,-0.1321,-0.1326,-0.119,-0.1081,-0.0877,-0.0866,-0.0806,-0.0795,-0.0792,-0.0777,-0.0922,-0.0882,-0.0882,-0.0882,-0.0882,-0.0882,0,-0.1459,-0.1362,-0.1204,-0.099,-0.0862,-0.0851,-0.0691,-0.0603,-0.0591,-0.0816,-0.1047,-0.1346,-0.1272,-0.1178,-0.0942,-0.0836,-0.0759,-0.0782,-0.0749,-0.0711,-0.0777,-0.0799,-0.0806,-0.0806,-0.0806,-0.0806,-0.0806,-0.0806,-0.1282,-0.106,-0.0999,-0.0736,-0.0652,-0.0475,-0.0385,-0.0339,-0.0443,-0.0685,-0.0992,-0.1286,-0.1253,-0.1107,-0.086,-0.0786,-0.0694,-0.0719,-0.0658,-0.0678,-0.0678,-0.0678,-0.0694,-0.0679,-0.0679,-0.0576,-0.0575,-0.0575]},{"header":{"parameterUnit":"m.s-1","parameterCategory":2,"la1":30.2991,"la2":30.254,"lo1":-89.0895,"lo2":-89.0444,"dy":0.0017,"dx":0.0017,"nx":28,"ny":28,"refTime":"2024-02-01T09:00:00:Z","depth":"0","parameterNumber":3,"parameterNumberName":"V-component_of_CURRENTS"},"data":[0,0,0,0,0,0,0,0,0,0,0,0,0,0,0,0,0,0,0,0,0,0,0,0,0,0,0,0,0,0,0,0,0,0,0,0,0,0,0,0,0,0,0,0,0,0,0,0,0,0,0,0,0,0,0,0,0,0,0.0652,0.0656,0,0.0954,0.0957,0.096,0.0971,0.0968,0.0964,0.0961,0.1097,0.1103,0.111,0,0,0,0,0,0,0,0,0,0,0,0,0,0.0198,0.0205,0.0652,0.0656,0.066,0.0953,0.0957,0.0961,0.0971,0.0967,0.0963,0.096,0.1094,0.1102,0.111,0,0,0,0,0,0,0,0,0,0,0,0,0,0.0434,0.0208,0.0651,0.0703,0.0711,0.0953,0.0957,0.0962,0.0972,0.0967,0.0962,0.0958,0.1092,0.1102,0.1112,0.1274,0,0,0.1142,0.1147,0,0,0,0,0,0,0,0,0.042,0.045,0.0691,0.07,0.0709,0.0922,0.0847,0.106,0.0974,0.087,0.0961,0.0955,0.1029,0.1044,0.111,0.1281,0.1287,0.1143,0.1149,0.1154,0.1157,0,0,0,0,0,0,0,0.0404,0.0438,0.0768,0.0696,0.0707,0.075,0.0777,0.0889,0.0968,0.0878,0.0881,0.0921,0.1031,0.11,0.1112,0.1289,0.1143,0.1152,0.1158,0.1162,0.1434,0.1435,0,0,0,0,0,0,0.0375,0.0423,0.0759,0.0778,0.0553,0.0762,0.0792,0.0856,0.0971,0.0986,0.0925,0.0921,0.1085,0.1101,0.1117,0.1216,0.1154,0.1163,0.1169,0.1433,0.1434,0.1435,0,0,0,0,0,0,0.0364,0.0403,0.0747,0.0607,0.0654,0.0775,0.0848,0.0865,0.0933,0.1009,0.1018,0.0973,0.1082,0.1103,0.1193,0.1224,0.1168,0.1177,0.1431,0.1433,0.1435,0.1478,0,0,0,0,0,0,0.035,0.0398,0.0458,0.0607,0.0661,0.0892,0.0854,0.0875,0.0967,0.0963,0.1055,0.1062,0.108,0.1178,0.1203,0.1237,0.1185,0.143,0.1432,0.1434,0.1475,0.1481,0.1486,0,0,0,0,0,0.0333,0.0462,0.046,0.0502,0.0733,0.0896,0.0929,0.0993,0.0974,0.1029,0.1059,0.1059,0.1207,0.119,0.1218,0.1255,0.1429,0.1432,0.1434,0.1473,0.148,0.1486,0,0,0,0,0,0,0.0365,0.048,0.048,0.0653,0.0751,0.0898,0.0989,0.1015,0.1097,0.1079,0.1114,0.1127,0.1204,0.1236,0.1215,0.1332,0.1305,0.1314,0.1324,0.1332,0.1337,0.1301,0.1193,0,0,0,0,0,0.0383,0.0468,0.0585,0.0727,0.0772,0.0874,0.0955,0.0986,0.1073,0.1105,0.1155,0.1197,0.1251,0.129,0.1346,0.1457,0.1474,0.1483,0.1488,0.1493,0.1479,0.1553,0.1564,0.1444,0.1444,0.1444,0,0,0.0446,0.0517,0.0575,0.073,0.0813,0.0883,0.0911,0.1038,0.1077,0.1111,0.1189,0.1235,0.1282,0.1365,0.1402,0.1392,0.1538,0.1496,0.15,0.1484,0.1557,0.1569,0.1579,0.1446,0.1445,0.1445,0,0,0.056,0.066,0.0722,0.0787,0.0891,0.0946,0.0973,0.1097,0.1131,0.1225,0.1227,0.129,0.1399,0.1431,0.1459,0.1543,0.1561,0.1554,0.1572,0.1645,0.1655,0.1665,0.1709,0.1722,0.1563,0.1563,0.1563,0,0.0618,0.0703,0.0781,0.0833,0.0884,0.0956,0.1009,0.1084,0.121,0.1244,0.1232,0.1371,0.1421,0.1506,0.1514,0.1557,0.1589,0.1547,0.1653,0.1663,0.1671,0.1715,0.1729,0.1565,0.1565,0.1565,0.1564,0,0.0716,0.0787,0.085,0.0889,0.0965,0.105,0.1113,0.1177,0.1208,0.1264,0.1356,0.1432,0.1499,0.1533,0.1553,0.1644,0.1643,0.165,0.1636,0.1686,0.1729,0.1742,0.1569,0.1568,0.1567,0.1566,0,0,0.0788,0.0889,0.0888,0.0908,0.0985,0.1066,0.1119,0.1204,0.1242,0.1334,0.1394,0.1495,0.1531,0.1562,0.1611,0.1679,0.1782,0.1691,0.1694,0.1734,0.193,0.1857,0.1865,0.1816,0.1818,0.182,0.1937,0,0.0811,0.09,0.0927,0.1001,0.1056,0.11,0.1151,0.1229,0.1287,0.1369,0.1447,0.1527,0.1545,0.1586,0.1658,0.1756,0.1818,0.1748,0.1875,0.1877,0.1807,0.1878,0.1761,0.1848,0.195,0.1952,0.1954,0,0.082,0.0886,0.0954,0.104,0.1064,0.1108,0.118,0.1243,0.1348,0.1387,0.1465,0.1526,0.1643,0.1643,0.1818,0.1775,0.1845,0.1909,0.1916,0.1835,0.1829,0.1813,0.1869,0.1834,0.1975,0.1973,0.1972,0,0.0778,0.0881,0.0932,0.0963,0.1076,0.1107,0.1168,0.1257,0.1326,0.1411,0.1451,0.1574,0.1655,0.176,0.1881,0.1864,0.2061,0.2057,0.205,0.2046,0.1959,0.1942,0.1989,0.2164,0.2164,0.2164,0.2164,0,0.076,0.0797,0.0928,0.096,0.1039,0.1112,0.1203,0.1243,0.1347,0.1436,0.1474,0.1545,0.1692,0.1814,0.1902,0.2018,0.2082,0.2057,0.2078,0.197,0.1953,0.1926,0.1923,0.2168,0.2167,0.2166,0.2166,0,0.0686,0.0764,0.0843,0.0973,0.1024,0.1082,0.1245,0.1321,0.1371,0.1476,0.1503,0.1586,0.171,0.1835,0.2021,0.2047,0.2143,0.2179,0.2022,0.202,0.1935,0.1938,0.2035,0.2083,0.2182,0.2181,0.218,0,0.0657,0.0691,0.0845,0.0914,0.0976,0.1106,0.1205,0.1322,0.1418,0.1502,0.1559,0.1659,0.1735,0.1931,0.1988,0.2103,0.2139,0.2056,0.1989,0.1916,0.1938,0.1968,0.2005,0.1907,0.1903,0.1901,0.1899,0,0.0605,0.0649,0.0725,0.0877,0.0995,0.1145,0.1303,0.1391,0.152,0.1577,0.1641,0.1682,0.177,0.1814,0.1919,0.197,0.1999,0.2005,0.1994,0.1769,0.1746,0.1804,0.1832,0.1877,0.1879,0.1881,0.1882,0.1883,0.0563,0.0604,0.072,0.086,0.099,0.1166,0.1293,0.1448,0.1586,0.1663,0.1676,0.1644,0.164,0.1734,0.1807,0.1749,0.1866,0.1725,0.1752,0.1804,0.1788,0.1741,0.1762,0.1764,0.1765,0.1766,0.1767,0,0.0575,0.0628,0.0722,0.09,0.103,0.1127,0.1344,0.1473,0.1626,0.162,0.1638,0.1482,0.1492,0.1493,0.1456,0.1478,0.155,0.1509,0.1521,0.1592,0.1587,0.1506,0.1394,0.1394,0.1395,0.1395,0.1395,0.1395,0.0596,0.0667,0.0725,0.0913,0.1042,0.1241,0.1373,0.1519,0.1565,0.1553,0.1413,0.1309,0.1213,0.1254,0.1248,0.1274,0.1387,0.1359,0.1515,0.1448,0.147,0.1491,0.1414,0.1284,0.1284,0.1488,0.1489,0.149]}],[{"header":{"parameterUnit":"m.s-1","parameterCategory":2,"la1":30.2991,"la2":30.254,"lo1":-89.0895,"lo2":-89.0444,"dy":0.0017,"dx":0.0017,"nx":28,"ny":28,"refTime":"2024-02-01T09:00:00:Z","depth":"2","parameterNumber":2,"parameterNumberName":"U-component_of_CURRENTS"},"data":[0,0,0,0,0,0,0,0,0,0,0,0,0,0,0,0,0,0,0,0,0,0,0,0,0,0,0,0,0,0,0,0,0,0,0,0,0,0,0,0,0,0,0,0,0,0,0,0,0,0,0,0,0,0,0,0,0,0,-0.2187,-0.2188,0,-0.2243,-0.2243,-0.2243,-0.2228,-0.2228,-0.2227,-0.2227,-0.2374,-0.2378,-0.2383,0,0,0,0,0,0,0,0,0,0,0,0,0,-0.2064,-0.2065,-0.2187,-0.2189,-0.219,-0.2243,-0.2243,-0.2243,-0.2228,-0.2228,-0.2227,-0.2227,-0.2373,-0.2378,-0.2383,0,0,0,0,0,0,0,0,0,0,0,0,0,-0.2111,-0.2066,-0.2187,-0.2195,-0.2196,-0.2243,-0.2243,-0.2243,-0.2228,-0.2228,-0.2227,-0.2227,-0.2371,-0.2377,-0.2384,-0.2436,0,0,-0.2403,-0.2406,0,0,0,0,0,0,0,0,-0.2108,-0.2114,-0.2192,-0.2194,-0.2196,-0.2234,-0.2253,-0.2314,-0.2229,-0.2208,-0.2227,-0.2226,-0.2341,-0.235,-0.235,-0.2443,-0.2449,-0.2404,-0.2408,-0.2411,-0.2412,0,0,0,0,0,0,0,-0.2105,-0.2112,-0.2201,-0.2194,-0.2197,-0.2194,-0.2199,-0.2264,-0.2274,-0.221,-0.2211,-0.2229,-0.2342,-0.2344,-0.2354,-0.2451,-0.2404,-0.2409,-0.2413,-0.2416,-0.2722,-0.2726,0,0,0,0,0,0,-0.2115,-0.2109,-0.22,-0.2204,-0.2158,-0.2197,-0.2203,-0.2217,-0.2271,-0.228,-0.223,-0.2229,-0.2333,-0.2346,-0.2359,-0.2472,-0.2411,-0.2417,-0.242,-0.2717,-0.2723,-0.2727,0,0,0,0,0,0,-0.2112,-0.2122,-0.2198,-0.2164,-0.2174,-0.2201,-0.2216,-0.2218,-0.2241,-0.2286,-0.2295,-0.2254,-0.2333,-0.235,-0.2482,-0.2476,-0.242,-0.2425,-0.2712,-0.2719,-0.2725,-0.2669,0,0,0,0,0,0,-0.2108,-0.212,-0.214,-0.2165,-0.2177,-0.224,-0.2218,-0.222,-0.2256,-0.2255,-0.2311,-0.2321,-0.2334,-0.2473,-0.2488,-0.2484,-0.243,-0.2707,-0.2715,-0.2723,-0.2666,-0.2673,-0.2679,0,0,0,0,0,-0.2103,-0.2102,-0.214,-0.2152,-0.2201,-0.2242,-0.2247,-0.2259,-0.2258,-0.2275,-0.2351,-0.2321,-0.2533,-0.2483,-0.25,-0.2496,-0.2703,-0.2713,-0.2722,-0.2663,-0.2671,-0.2679,0,0,0,0,0,0,-0.205,-0.2103,-0.2144,-0.2161,-0.222,-0.2243,-0.2251,-0.2278,-0.2343,-0.235,-0.2391,-0.241,-0.2522,-0.2552,-0.2495,-0.2621,-0.2607,-0.2621,-0.2556,-0.2565,-0.2572,-0.2515,-0.2436,0,0,0,0,0,-0.2059,-0.2102,-0.2145,-0.2189,-0.2192,-0.2237,-0.2259,-0.2279,-0.2338,-0.2361,-0.2418,-0.2492,-0.2572,-0.2603,-0.2685,-0.2757,-0.2714,-0.2771,-0.2778,-0.2782,-0.2758,-0.2679,-0.2672,-0.2759,-0.2759,-0.2758,0,0,-0.2075,-0.2106,-0.214,-0.2188,-0.2216,-0.2244,-0.2244,-0.2281,-0.2349,-0.2375,-0.2483,-0.2534,-0.2612,-0.2695,-0.2742,-0.2711,-0.2752,-0.2794,-0.2796,-0.2769,-0.2688,-0.2677,-0.2668,-0.2765,-0.2764,-0.2763,0,0,-0.209,-0.2128,-0.2145,-0.218,-0.2233,-0.2267,-0.2287,-0.2333,-0.2385,-0.252,-0.2542,-0.2585,-0.2748,-0.2739,-0.2773,-0.2875,-0.281,-0.2923,-0.2872,-0.2797,-0.2785,-0.2774,-0.2739,-0.2725,-0.2897,-0.2896,-0.2896,0,-0.2073,-0.2133,-0.2165,-0.2172,-0.2225,-0.228,-0.2317,-0.2375,-0.2486,-0.2543,-0.2569,-0.2713,-0.2752,-0.2788,-0.2813,-0.2871,-0.2843,-0.2814,-0.279,-0.2779,-0.2768,-0.2735,-0.272,-0.2895,-0.2895,-0.2895,-0.2895,0,-0.2095,-0.2148,-0.2152,-0.2209,-0.2269,-0.231,-0.2396,-0.2471,-0.2561,-0.2621,-0.2721,-0.2753,-0.2804,-0.2826,-0.2854,-0.2804,-0.2817,-0.2814,-0.2732,-0.2753,-0.2721,-0.2706,-0.2893,-0.2893,-0.2894,-0.2894,0,0,-0.2012,-0.2135,-0.2132,-0.2199,-0.2294,-0.2339,-0.2464,-0.2577,-0.2638,-0.2724,-0.2776,-0.285,-0.2805,-0.2838,-0.2819,-0.2738,-0.2639,-0.2735,-0.2731,-0.2634,-0.2497,-0.2327,-0.2295,-0.2615,-0.2611,-0.2609,-0.2511,0,-0.201,-0.205,-0.2137,-0.2246,-0.229,-0.2404,-0.2525,-0.2644,-0.2746,-0.2803,-0.2798,-0.2837,-0.283,-0.28,-0.2725,-0.2674,-0.2595,-0.2667,-0.2549,-0.2546,-0.2334,-0.2268,-0.2184,-0.2071,-0.2496,-0.2494,-0.2492,0,-0.1991,-0.2038,-0.2117,-0.2306,-0.2328,-0.2414,-0.2592,-0.2715,-0.2813,-0.2863,-0.2846,-0.2835,-0.2735,-0.2715,-0.2569,-0.2618,-0.255,-0.2498,-0.2493,-0.2327,-0.2344,-0.2123,-0.2028,-0.2466,-0.2469,-0.247,-0.2472,0,-0.1929,-0.204,-0.2123,-0.2169,-0.2353,-0.2448,-0.258,-0.2734,-0.2815,-0.2853,-0.2824,-0.2772,-0.268,-0.2594,-0.2482,-0.2515,-0.2319,-0.2352,-0.2144,-0.2135,-0.2032,-0.2016,-0.2225,-0.2225,-0.2225,-0.2225,-0.2226,0,-0.1905,-0.1971,-0.2099,-0.2132,-0.2263,-0.2436,-0.2585,-0.2679,-0.2772,-0.2791,-0.2807,-0.2712,-0.2631,-0.2518,-0.2458,-0.2229,-0.229,-0.2094,-0.2063,-0.2021,-0.2005,-0.2332,-0.2345,-0.2222,-0.2223,-0.2223,-0.2224,0,-0.185,-0.1928,-0.2022,-0.2181,-0.224,-0.235,-0.2565,-0.2638,-0.2727,-0.2717,-0.2687,-0.2625,-0.2454,-0.2385,-0.2226,-0.2137,-0.1989,-0.1907,-0.1875,-0.1836,-0.188,-0.1894,-0.1646,-0.1639,-0.1632,-0.1627,-0.1622,0,-0.1827,-0.1847,-0.1992,-0.2035,-0.2116,-0.2294,-0.2402,-0.2587,-0.2645,-0.2632,-0.2576,-0.2415,-0.22,-0.1939,-0.1826,-0.1656,-0.1788,-0.1477,-0.1481,-0.1807,-0.1804,-0.1828,-0.185,-0.1375,-0.1368,-0.1363,-0.1359,0,-0.1747,-0.1787,-0.1837,-0.1918,-0.2026,-0.2169,-0.2332,-0.2351,-0.2514,-0.2408,-0.225,-0.2055,-0.1821,-0.1539,-0.1345,-0.1275,-0.1495,-0.1357,-0.1673,-0.1508,-0.1533,-0.1537,-0.1571,-0.1314,-0.1319,-0.1322,-0.1324,-0.1326,-0.1665,-0.1652,-0.1694,-0.178,-0.1894,-0.201,-0.2055,-0.2131,-0.2107,-0.19,-0.1882,-0.1501,-0.145,-0.0994,-0.0955,-0.0989,-0.1069,-0.1053,-0.1077,-0.1105,-0.1063,-0.1071,-0.0763,-0.0764,-0.0765,-0.0766,-0.0767,0,-0.1535,-0.1523,-0.1552,-0.1639,-0.1678,-0.1846,-0.1953,-0.1899,-0.1748,-0.1531,-0.1266,-0.0955,-0.0683,-0.07,-0.0644,-0.0607,-0.0715,-0.0624,-0.0791,-0.0832,-0.087,-0.0827,-0.0459,-0.0458,-0.0457,-0.0457,0,0,-0.1461,-0.1415,-0.1413,-0.1405,-0.1473,-0.1496,-0.1528,-0.1399,-0.1254,-0.0905,-0.065,-0.0433,-0.0509,-0.0396,-0.0448,-0.0432,-0.0629,-0.0426,-0.0668,-0.0895,-0.0932,-0.1102,-0.1075,0,0,0,0,0]},{"header":{"parameterUnit":"m.s-1","parameterCategory":2,"la1":30.2991,"la2":30.254,"lo1":-89.0895,"lo2":-89.0444,"dy":0.0017,"dx":0.0017,"nx":28,"ny":28,"refTime":"2024-02-01T09:00:00:Z","depth":"2","parameterNumber":3,"parameterNumberName":"V-component_of_CURRENTS"},"data":[0,0,0,0,0,0,0,0,0,0,0,0,0,0,0,0,0,0,0,0,0,0,0,0,0,0,0,0,0,0,0,0,0,0,0,0,0,0,0,0,0,0,0,0,0,0,0,0,0,0,0,0,0,0,0,0,0,0,-0.0903,-0.0902,0,-0.086,-0.086,-0.086,-0.0776,-0.0774,-0.0772,-0.077,-0.0529,-0.0525,-0.0521,0,0,0,0,0,0,0,0,0,0,0,0,0,-0.0919,-0.0919,-0.0903,-0.0902,-0.0901,-0.086,-0.086,-0.086,-0.0777,-0.0774,-0.0772,-0.0769,-0.0531,-0.0526,-0.052,0,0,0,0,0,0,0,0,0,0,0,0,0,-0.0902,-0.0919,-0.0903,-0.0851,-0.0846,-0.086,-0.086,-0.086,-0.0777,-0.0774,-0.0771,-0.0768,-0.0533,-0.0526,-0.0519,-0.0539,0,0,-0.0499,-0.0496,0,0,0,0,0,0,0,0,-0.0903,-0.0902,-0.086,-0.0855,-0.0849,-0.0816,-0.0777,-0.0741,-0.0778,-0.0808,-0.077,-0.0767,-0.0606,-0.0593,-0.0601,-0.0528,-0.0517,-0.0498,-0.0494,-0.0491,-0.0489,0,0,0,0,0,0,0,-0.0904,-0.0903,-0.0891,-0.0859,-0.0852,-0.0832,-0.0826,-0.0771,-0.0725,-0.0805,-0.0798,-0.0787,-0.0602,-0.0608,-0.0594,-0.0514,-0.0498,-0.0492,-0.0488,-0.0485,-0.0241,-0.0238,0,0,0,0,0,0,-0.0904,-0.0905,-0.0892,-0.0889,-0.0864,-0.0834,-0.0828,-0.0834,-0.0729,-0.0711,-0.079,-0.0783,-0.0621,-0.0602,-0.0585,-0.0434,-0.0491,-0.0485,-0.0481,-0.0243,-0.024,-0.0237,0,0,0,0,0,0,-0.0905,-0.0904,-0.0893,-0.0891,-0.0887,-0.0836,-0.0844,-0.0834,-0.0811,-0.0719,-0.0697,-0.0772,-0.0618,-0.0595,-0.0505,-0.0429,-0.0482,-0.0476,-0.0246,-0.0242,-0.0239,-0.0238,0,0,0,0,0,0,-0.0906,-0.0905,-0.0928,-0.0892,-0.0887,-0.0893,-0.0846,-0.0836,-0.0809,-0.0799,-0.0697,-0.0673,-0.0614,-0.0516,-0.0499,-0.0421,-0.047,-0.0249,-0.0244,-0.024,-0.0241,-0.0234,-0.0229,0,0,0,0,0,-0.0907,-0.0957,-0.093,-0.0929,-0.0915,-0.0894,-0.0891,-0.0846,-0.0811,-0.0812,-0.0726,-0.0675,-0.0472,-0.0511,-0.049,-0.0408,-0.0251,-0.0246,-0.024,-0.0243,-0.0236,-0.0229,0,0,0,0,0,0,-0.0985,-0.0952,-0.0922,-0.0961,-0.0919,-0.0877,-0.0899,-0.0845,-0.0789,-0.0775,-0.0671,-0.0643,-0.0521,-0.0481,-0.0525,-0.0322,-0.0342,-0.0333,-0.0351,-0.0343,-0.0337,-0.0374,-0.0465,0,0,0,0,0,-0.1011,-0.1035,-0.0979,-0.1009,-0.1,-0.0944,-0.0934,-0.089,-0.0829,-0.0803,-0.0733,-0.0629,-0.0493,-0.0435,-0.0349,-0.0268,-0.0255,-0.0192,-0.0186,-0.0181,-0.0195,-0.0135,-0.0127,-0.0219,-0.0219,-0.0219,0,0,-0.1064,-0.1035,-0.1059,-0.1026,-0.1007,-0.0982,-0.0933,-0.0922,-0.0872,-0.0784,-0.0729,-0.0618,-0.0468,-0.0354,-0.0294,-0.0305,-0.0144,-0.0174,-0.0171,-0.0188,-0.0129,-0.012,-0.0113,-0.0216,-0.0216,-0.0217,0,0,-0.1124,-0.1143,-0.1153,-0.1129,-0.1077,-0.1037,-0.1022,-0.0973,-0.0928,-0.0846,-0.0737,-0.0606,-0.0459,-0.0335,-0.0237,-0.0157,-0.0116,-0.0097,-0.0094,-0.0035,-0.0028,-0.0022,0.0008,0.0016,-0.0094,-0.0094,-0.0094,0,-0.1172,-0.1163,-0.1155,-0.1136,-0.1116,-0.1051,-0.1029,-0.0985,-0.0905,-0.0837,-0.0823,-0.0547,-0.044,-0.0227,-0.018,-0.0141,-0.0117,-0.0133,-0.0032,-0.0025,-0.0019,0.001,0.002,-0.0093,-0.0093,-0.0093,-0.0093,0,-0.1204,-0.12,-0.1216,-0.1158,-0.1147,-0.1133,-0.1057,-0.103,-0.0953,-0.085,-0.0668,-0.0541,-0.0356,-0.028,-0.0193,-0.0049,-0.0049,-0.0036,-0.0063,-0.001,0.0018,0.0028,-0.0092,-0.0092,-0.0092,-0.0093,0,0,-0.1265,-0.1238,-0.1233,-0.1213,-0.1153,-0.1146,-0.1086,-0.0969,-0.0877,-0.0783,-0.0652,-0.0415,-0.0327,-0.0216,-0.0096,-0.0042,0.0037,-0.0019,-0.0016,-0.0014,0.015,-0.0018,-0.0023,0.0069,0.0071,0.0072,0.015,0,-0.126,-0.124,-0.1218,-0.1199,-0.1185,-0.1137,-0.107,-0.0965,-0.0843,-0.0723,-0.0547,-0.0368,-0.0298,-0.0188,-0.0119,0.0003,0.0063,0.0013,0.0119,0.0121,-0.0054,-0.0017,0.0017,0.0074,0.016,0.0162,0.0163,0,-0.1263,-0.1236,-0.1226,-0.1186,-0.1176,-0.1153,-0.1044,-0.0961,-0.0762,-0.0656,-0.0475,-0.0343,-0.018,-0.0165,0.0022,-0.0012,0.0073,0.013,0.0135,-0.0024,-0.0029,0.004,0.0089,0.0179,0.0178,0.0177,0.0176,0,-0.1278,-0.1247,-0.1239,-0.1234,-0.1171,-0.1152,-0.1091,-0.092,-0.0823,-0.0604,-0.0523,-0.0304,-0.0214,-0.0088,0.0025,0.0048,0.0155,0.0208,0.0136,0.0126,0.017,0.0157,0.0323,0.0323,0.0322,0.0322,0.0322,0,-0.1272,-0.1268,-0.1253,-0.1247,-0.1213,-0.1161,-0.1056,-0.096,-0.0788,-0.0669,-0.048,-0.0413,-0.0198,-0.0113,0.0008,0.0059,0.0151,0.0124,0.0132,0.0169,0.0156,0.0258,0.025,0.0325,0.0324,0.0324,0.0323,0,-0.1295,-0.1282,-0.128,-0.1237,-0.1223,-0.1196,-0.1085,-0.1007,-0.0831,-0.0704,-0.0647,-0.048,-0.0376,-0.0212,-0.0032,0.0004,0.0096,0.0101,0.0096,0.0097,0.0046,0.0038,0.0059,0.0053,0.0049,0.0045,0.0042,0,-0.1312,-0.1302,-0.1298,-0.1303,-0.129,-0.1228,-0.1189,-0.1032,-0.0949,-0.0778,-0.0756,-0.0625,-0.0557,-0.0404,-0.0246,-0.0085,-0.002,-0.0034,0.0005,0.0012,0.0019,0.0017,0.0015,0.0103,0.0101,0.0099,0.0097,0,-0.1315,-0.132,-0.1314,-0.1324,-0.1328,-0.1303,-0.1235,-0.1187,-0.1016,-0.0953,-0.0909,-0.0861,-0.0689,-0.0533,-0.0358,-0.0258,-0.0063,-0.0082,-0.0016,0.0102,0.0043,0.0051,0.0052,0.008,0.0082,0.0083,0.0084,0.0084,-0.1321,-0.1323,-0.1322,-0.1335,-0.1358,-0.1365,-0.1314,-0.127,-0.1196,-0.104,-0.1056,-0.0946,-0.0778,-0.0518,-0.0367,-0.0203,-0.0221,-0.0149,-0.0135,-0.0121,-0.0193,-0.0264,-0.0296,-0.0297,-0.0297,-0.0297,-0.0297,0,-0.1296,-0.1303,-0.1327,-0.1338,-0.137,-0.1383,-0.134,-0.1255,-0.1209,-0.111,-0.1044,-0.0864,-0.072,-0.0502,-0.0273,-0.0212,-0.009,-0.0177,-0.0001,0.001,0.0022,-0.0034,-0.0098,-0.0097,-0.0095,-0.0094,0,0,-0.127,-0.1277,-0.1285,-0.1324,-0.1355,-0.1347,-0.1323,-0.1232,-0.1113,-0.0995,-0.0904,-0.0837,-0.0683,-0.0474,-0.0329,-0.0189,-0.0088,-0.0158,-0.0338,-0.0135,-0.0122,-0.0003,-0.0086,0,0,0,0,0]}],[{"header":{"parameterUnit":"m.s-1","parameterCategory":2,"la1":30.2991,"la2":30.254,"lo1":-89.0895,"lo2":-89.0444,"dy":0.0017,"dx":0.0017,"nx":28,"ny":28,"refTime":"2024-02-01T09:00:00:Z","depth":"4","parameterNumber":2,"parameterNumberName":"U-component_of_CURRENTS"},"data":[0,0,0,0,0,0,0,0,0,0,0,0,0,0,0,0,0,0,0,0,0,0,0,0,0,0,0,0,0,0,0,0,0,0,0,0,0,0,0,0,0,0,0,0,0,0,0,0,0,0,0,0,0,0,0,0,0,0,-0.0953,-0.0953,0,-0.0946,-0.0947,-0.0947,-0.0971,-0.0972,-0.0972,-0.0973,-0.1019,-0.102,-0.1021,0,0,0,0,0,0,0,0,0,0,0,0,0,-0.1006,-0.1005,-0.0953,-0.0953,-0.0953,-0.0946,-0.0947,-0.0947,-0.0971,-0.0972,-0.0973,-0.0973,-0.1019,-0.102,-0.1021,0,0,0,0,0,0,0,0,0,0,0,0,0,-0.0992,-0.1004,-0.0953,-0.0962,-0.0963,-0.0946,-0.0947,-0.0947,-0.0971,-0.0972,-0.0973,-0.0973,-0.1019,-0.102,-0.1021,-0.1013,0,0,-0.1025,-0.1025,0,0,0,0,0,0,0,0,-0.0993,-0.099,-0.0961,-0.0961,-0.0962,-0.0958,-0.0982,-0.0971,-0.0971,-0.0971,-0.0973,-0.0974,-0.1001,-0.1004,-0.1004,-0.1016,-0.1018,-0.1025,-0.1025,-0.1026,-0.1026,0,0,0,0,0,0,0,-0.0993,-0.0991,-0.0953,-0.0961,-0.0961,-0.0972,-0.0971,-0.098,-0.0985,-0.0971,-0.0972,-0.0967,-0.1003,-0.1003,-0.1006,-0.1018,-0.1025,-0.1026,-0.1026,-0.1027,-0.1107,-0.1108,0,0,0,0,0,0,-0.0987,-0.0991,-0.0953,-0.0953,-0.0976,-0.0971,-0.097,-0.0961,-0.0984,-0.0987,-0.0966,-0.0968,-0.1001,-0.1004,-0.1007,-0.1081,-0.1026,-0.1027,-0.1028,-0.1105,-0.1107,-0.1109,0,0,0,0,0,0,-0.0988,-0.0983,-0.0954,-0.097,-0.0967,-0.0968,-0.0959,-0.096,-0.0981,-0.0979,-0.0984,-0.0987,-0.1001,-0.1006,-0.104,-0.108,-0.1027,-0.1029,-0.1104,-0.1106,-0.1108,-0.1177,0,0,0,0,0,0,-0.0989,-0.0984,-0.0984,-0.0969,-0.0966,-0.0955,-0.0958,-0.0959,-0.0974,-0.0977,-0.0998,-0.1002,-0.1002,-0.1038,-0.1041,-0.1081,-0.1029,-0.1102,-0.1105,-0.1107,-0.1173,-0.1182,-0.1189,0,0,0,0,0,-0.0991,-0.0967,-0.0984,-0.098,-0.0963,-0.0955,-0.0955,-0.096,-0.0974,-0.0983,-0.1007,-0.1002,-0.1057,-0.104,-0.1043,-0.1085,-0.1101,-0.1104,-0.1107,-0.117,-0.118,-0.1188,0,0,0,0,0,0,-0.0966,-0.0966,-0.0985,-0.0958,-0.0969,-0.0958,-0.0954,-0.0972,-0.0996,-0.1004,-0.1016,-0.1021,-0.1071,-0.1063,-0.1043,-0.1115,-0.108,-0.1084,-0.1127,-0.1136,-0.1144,-0.1109,-0.103,0,0,0,0,0,-0.0967,-0.0959,-0.0969,-0.0946,-0.0956,-0.0967,-0.0968,-0.0979,-0.099,-0.1002,-0.1028,-0.1052,-0.1082,-0.1097,-0.1116,-0.1147,-0.1119,-0.1177,-0.1185,-0.1191,-0.1165,-0.1182,-0.1188,-0.1119,-0.1119,-0.1119,0,0,-0.0948,-0.0945,-0.0941,-0.0943,-0.095,-0.0971,-0.097,-0.0972,-0.0998,-0.1003,-0.1054,-0.1083,-0.1097,-0.1143,-0.1163,-0.1143,-0.1195,-0.1195,-0.1201,-0.117,-0.1186,-0.1192,-0.1198,-0.1121,-0.1121,-0.1121,0,0,-0.0913,-0.0911,-0.0915,-0.0932,-0.0951,-0.0962,-0.0973,-0.0997,-0.1019,-0.1068,-0.1087,-0.1138,-0.1178,-0.1202,-0.1216,-0.1274,-0.124,-0.1288,-0.1295,-0.1314,-0.1319,-0.1323,-0.1289,-0.1289,-0.1288,-0.1288,-0.1288,0,-0.0903,-0.0902,-0.0912,-0.093,-0.0938,-0.0968,-0.0987,-0.1013,-0.1051,-0.1067,-0.1094,-0.1174,-0.1207,-0.1248,-0.1278,-0.1293,-0.127,-0.1263,-0.1323,-0.1327,-0.133,-0.1293,-0.1293,-0.1291,-0.1291,-0.1291,-0.129,0,-0.0891,-0.0901,-0.0895,-0.0941,-0.0954,-0.096,-0.1005,-0.1038,-0.1081,-0.1112,-0.1176,-0.1227,-0.1263,-0.1305,-0.1313,-0.1356,-0.132,-0.1336,-0.1297,-0.1341,-0.13,-0.1298,-0.1297,-0.1295,-0.1294,-0.1293,0,0,-0.0845,-0.0886,-0.089,-0.0917,-0.0959,-0.0967,-0.1009,-0.1049,-0.1074,-0.1148,-0.1171,-0.1271,-0.1292,-0.1308,-0.1338,-0.1366,-0.1394,-0.1358,-0.1357,-0.1316,-0.1387,-0.1273,-0.126,-0.1422,-0.1422,-0.1422,-0.1346,0,-0.0844,-0.0871,-0.0893,-0.0929,-0.095,-0.0985,-0.1019,-0.106,-0.1102,-0.1135,-0.1196,-0.1249,-0.1294,-0.1325,-0.1357,-0.1378,-0.1393,-0.1409,-0.1354,-0.1351,-0.1241,-0.1256,-0.1424,-0.1345,-0.1344,-0.1344,-0.1344,0,-0.0841,-0.0857,-0.0888,-0.0928,-0.0941,-0.0976,-0.1014,-0.105,-0.1095,-0.1125,-0.117,-0.1207,-0.1256,-0.1299,-0.1337,-0.134,-0.136,-0.1381,-0.1379,-0.1238,-0.1234,-0.1294,-0.134,-0.1341,-0.1341,-0.1341,-0.1341,0,-0.0806,-0.0853,-0.0873,-0.089,-0.0947,-0.097,-0.1006,-0.1052,-0.1069,-0.1119,-0.1131,-0.1181,-0.1204,-0.1248,-0.1283,-0.1316,-0.1291,-0.1348,-0.1257,-0.1247,-0.1342,-0.1338,-0.1372,-0.1373,-0.1373,-0.1373,-0.1373,0,-0.0783,-0.08,-0.0869,-0.0882,-0.0909,-0.0961,-0.0987,-0.1026,-0.1056,-0.1053,-0.1128,-0.1112,-0.1198,-0.1191,-0.1237,-0.1201,-0.1255,-0.1231,-0.1221,-0.1372,-0.1373,-0.1339,-0.1337,-0.137,-0.1371,-0.1371,-0.1372,0,-0.073,-0.0774,-0.0805,-0.0874,-0.0894,-0.0919,-0.0968,-0.0984,-0.103,-0.1017,-0.1034,-0.1052,-0.1045,-0.1091,-0.1126,-0.1124,-0.1128,-0.1109,-0.1204,-0.1205,-0.1083,-0.1085,-0.1004,-0.0999,-0.0995,-0.0992,-0.0989,0,-0.0698,-0.0714,-0.0789,-0.0802,-0.0834,-0.0876,-0.09,-0.0963,-0.0966,-0.096,-0.0938,-0.0932,-0.0941,-0.0854,-0.0939,-0.0968,-0.0996,-0.0974,-0.1091,-0.1046,-0.1046,-0.1054,-0.1061,-0.0983,-0.0982,-0.0981,-0.098,0,-0.0641,-0.0682,-0.0707,-0.0737,-0.0774,-0.079,-0.0826,-0.082,-0.0865,-0.0905,-0.0804,-0.0786,-0.0745,-0.0761,-0.0766,-0.0812,-0.0978,-0.0935,-0.0946,-0.1056,-0.102,-0.1026,-0.1037,-0.0966,-0.0968,-0.0969,-0.097,0,-0.0601,-0.0607,-0.0653,-0.0666,-0.069,-0.0687,-0.0726,-0.0712,-0.0719,-0.073,-0.0671,-0.0671,-0.0679,-0.0675,-0.0684,-0.07,-0.0748,-0.077,-0.0791,-0.0807,-0.0791,-0.0719,-0.0539,0,0,0,0,0,-0.0564,-0.0567,-0.0573,-0.0582,-0.0589,-0.0611,-0.0658,-0.07,-0.0743,-0.0643,-0.0653,-0.061,-0.0585,-0.0589,-0.0583,-0.0673,-0.0791,-0.0667,-0.0836,-0.0891,-0.0906,-0.0913,0,0,0,0,0,0,-0.0552,-0.0558,-0.0556,-0.0496,-0.0478,-0.0493,-0.0529,-0.0569,-0.0522,-0.0552,-0.0539,-0.0558,-0.0558,-0.0556,-0.0551,-0.0566,-0.0662,-0.0684,-0.0682,-0.0882,-0.0896,-0.0909,-0.0921,0,0,0,0,0]},{"header":{"parameterUnit":"m.s-1","parameterCategory":2,"la1":30.2991,"la2":30.254,"lo1":-89.0895,"lo2":-89.0444,"dy":0.0017,"dx":0.0017,"nx":28,"ny":28,"refTime":"2024-02-01T09:00:00:Z","depth":"4","parameterNumber":3,"parameterNumberName":"V-component_of_CURRENTS"},"data":[0,0,0,0,0,0,0,0,0,0,0,0,0,0,0,0,0,0,0,0,0,0,0,0,0,0,0,0,0,0,0,0,0,0,0,0,0,0,0,0,0,0,0,0,0,0,0,0,0,0,0,0,0,0,0,0,0,0,-0.0748,-0.0748,0,-0.0745,-0.0745,-0.0745,-0.0738,-0.0737,-0.0737,-0.0737,-0.0752,-0.0753,-0.0753,0,0,0,0,0,0,0,0,0,0,0,0,0,-0.0704,-0.0705,-0.0748,-0.0748,-0.0748,-0.0745,-0.0745,-0.0745,-0.0738,-0.0737,-0.0737,-0.0737,-0.0752,-0.0753,-0.0753,0,0,0,0,0,0,0,0,0,0,0,0,0,-0.0714,-0.0705,-0.0748,-0.0745,-0.0744,-0.0745,-0.0745,-0.0745,-0.0738,-0.0737,-0.0737,-0.0737,-0.0752,-0.0753,-0.0753,-0.0762,0,0,-0.0756,-0.0756,0,0,0,0,0,0,0,0,-0.0714,-0.0716,-0.0745,-0.0745,-0.0744,-0.0742,-0.0735,-0.0752,-0.0738,-0.074,-0.0737,-0.0737,-0.0751,-0.0752,-0.0751,-0.0762,-0.0763,-0.0756,-0.0756,-0.0757,-0.0757,0,0,0,0,0,0,0,-0.0713,-0.0715,-0.0747,-0.0745,-0.0745,-0.0728,-0.0729,-0.0738,-0.0746,-0.074,-0.0739,-0.0739,-0.0751,-0.075,-0.0751,-0.0763,-0.0756,-0.0757,-0.0757,-0.0757,-0.081,-0.0811,0,0,0,0,0,0,-0.0717,-0.0715,-0.0747,-0.0747,-0.0729,-0.0729,-0.0731,-0.0743,-0.0746,-0.0746,-0.0739,-0.0739,-0.0749,-0.075,-0.0752,-0.0796,-0.0757,-0.0757,-0.0758,-0.0809,-0.081,-0.0812,0,0,0,0,0,0,-0.0716,-0.072,-0.0747,-0.073,-0.0732,-0.073,-0.0743,-0.0743,-0.0755,-0.0746,-0.0746,-0.0754,-0.0749,-0.0751,-0.0773,-0.0795,-0.0758,-0.0758,-0.0808,-0.081,-0.0811,-0.0863,0,0,0,0,0,0,-0.0715,-0.072,-0.0743,-0.0731,-0.0734,-0.0753,-0.0744,-0.0743,-0.0754,-0.0754,-0.0758,-0.0758,-0.0749,-0.0772,-0.0773,-0.0796,-0.0759,-0.0807,-0.0809,-0.0811,-0.086,-0.0866,-0.0871,0,0,0,0,0,-0.0714,-0.073,-0.0745,-0.0749,-0.0762,-0.0754,-0.0754,-0.075,-0.0756,-0.0761,-0.077,-0.0759,-0.0784,-0.0773,-0.0775,-0.0798,-0.0806,-0.0808,-0.081,-0.0858,-0.0865,-0.0871,0,0,0,0,0,0,-0.0729,-0.073,-0.0746,-0.0767,-0.0769,-0.0753,-0.0759,-0.0762,-0.0773,-0.0778,-0.0774,-0.0775,-0.0806,-0.0794,-0.0782,-0.0818,-0.0793,-0.0795,-0.0828,-0.0835,-0.084,-0.0832,-0.076,0,0,0,0,0,-0.0744,-0.0755,-0.0757,-0.0777,-0.0778,-0.0777,-0.078,-0.0777,-0.0778,-0.0783,-0.0793,-0.0801,-0.0814,-0.0818,-0.0828,-0.0846,-0.0832,-0.0861,-0.0866,-0.0871,-0.0865,-0.0867,-0.0872,-0.0818,-0.0818,-0.0818,0,0,-0.0757,-0.076,-0.0769,-0.0781,-0.0782,-0.0782,-0.0778,-0.078,-0.0788,-0.0784,-0.0811,-0.0828,-0.0826,-0.085,-0.0861,-0.0842,-0.0881,-0.0874,-0.0878,-0.0869,-0.087,-0.0875,-0.0879,-0.082,-0.082,-0.0819,0,0,-0.0763,-0.079,-0.0793,-0.0796,-0.08,-0.0795,-0.0802,-0.0804,-0.0814,-0.0838,-0.0845,-0.0879,-0.0889,-0.09,-0.0903,-0.0945,-0.0918,-0.0945,-0.0959,-0.0961,-0.0966,-0.0969,-0.0968,-0.0971,-0.0939,-0.0939,-0.0939,0,-0.0779,-0.0792,-0.0794,-0.0795,-0.0801,-0.0804,-0.0808,-0.0816,-0.083,-0.085,-0.0852,-0.0899,-0.0913,-0.0939,-0.0956,-0.096,-0.0945,-0.0935,-0.0968,-0.0971,-0.0974,-0.0971,-0.0974,-0.0942,-0.0941,-0.0941,-0.0941,0,-0.0778,-0.08,-0.0799,-0.0805,-0.081,-0.0814,-0.0821,-0.0841,-0.0862,-0.0878,-0.0925,-0.0945,-0.0968,-0.0986,-0.0983,-0.1013,-0.0993,-0.0983,-0.0951,-0.0982,-0.0978,-0.098,-0.0946,-0.0945,-0.0944,-0.0943,0,0,-0.0781,-0.0797,-0.0801,-0.0815,-0.0819,-0.0821,-0.0839,-0.0861,-0.0883,-0.0916,-0.0945,-0.0994,-0.1012,-0.1016,-0.1027,-0.1033,-0.106,-0.1013,-0.1011,-0.1009,-0.1054,-0.0951,-0.0943,-0.1046,-0.1047,-0.1047,-0.1047,0,-0.0783,-0.0794,-0.08,-0.0819,-0.0825,-0.084,-0.0855,-0.088,-0.0905,-0.0936,-0.0971,-0.1009,-0.1018,-0.1039,-0.1046,-0.1061,-0.1064,-0.106,-0.1024,-0.1023,-0.0926,-0.0941,-0.1048,-0.1048,-0.1048,-0.1049,-0.1049,0,-0.0775,-0.0787,-0.0806,-0.0834,-0.0839,-0.0854,-0.0886,-0.0903,-0.0941,-0.0963,-0.0997,-0.1018,-0.1057,-0.105,-0.1074,-0.1065,-0.1061,-0.1064,-0.1064,-0.0945,-0.0922,-0.1007,-0.1051,-0.1051,-0.1051,-0.1051,-0.1051,0,-0.0765,-0.0791,-0.0811,-0.0821,-0.0848,-0.0872,-0.0891,-0.0924,-0.0942,-0.0988,-0.1005,-0.104,-0.106,-0.1066,-0.1069,-0.1075,-0.1067,-0.108,-0.0982,-0.0975,-0.1046,-0.1042,-0.1082,-0.1082,-0.1082,-0.1082,-0.1082,0,-0.0753,-0.0775,-0.0817,-0.083,-0.0862,-0.0881,-0.0915,-0.094,-0.0967,-0.0985,-0.1024,-0.1027,-0.1061,-0.1056,-0.1061,-0.101,-0.1061,-0.0979,-0.0964,-0.107,-0.1068,-0.1048,-0.1044,-0.1082,-0.1082,-0.1082,-0.1082,0,-0.0731,-0.0761,-0.0787,-0.0835,-0.0857,-0.0879,-0.0923,-0.094,-0.0974,-0.099,-0.1008,-0.1025,-0.1018,-0.1023,-0.1027,-0.0989,-0.0967,-0.0933,-0.1036,-0.1028,-0.0883,-0.0882,-0.0844,-0.084,-0.0837,-0.0835,-0.0832,0,-0.0718,-0.0731,-0.0789,-0.081,-0.0838,-0.0878,-0.0903,-0.0943,-0.0949,-0.0976,-0.0973,-0.0978,-0.098,-0.0908,-0.0913,-0.089,-0.0876,-0.086,-0.0884,-0.0867,-0.0857,-0.0861,-0.0864,-0.0827,-0.0827,-0.0826,-0.0825,0,-0.069,-0.0717,-0.074,-0.0785,-0.0823,-0.0853,-0.0889,-0.0887,-0.092,-0.0954,-0.0929,-0.0908,-0.0874,-0.0855,-0.0816,-0.0806,-0.0874,-0.0827,-0.0835,-0.0858,-0.0846,-0.084,-0.0847,-0.0814,-0.0815,-0.0816,-0.0817,0,-0.0668,-0.0675,-0.0712,-0.0749,-0.0791,-0.0813,-0.0838,-0.0845,-0.0856,-0.0883,-0.0865,-0.0865,-0.0875,-0.0807,-0.0779,-0.0744,-0.0748,-0.0739,-0.0752,-0.0764,-0.0729,-0.0702,-0.0605,0,0,0,0,0,-0.0637,-0.0648,-0.0675,-0.071,-0.0749,-0.0783,-0.0818,-0.0838,-0.0865,-0.0835,-0.0849,-0.0819,-0.0764,-0.0752,-0.0699,-0.0724,-0.0742,-0.0656,-0.0739,-0.0753,-0.0766,-0.0726,0,0,0,0,0,0,-0.062,-0.064,-0.0656,-0.0672,-0.0695,-0.0736,-0.0762,-0.0788,-0.0766,-0.0793,-0.0769,-0.0778,-0.0736,-0.0797,-0.0691,-0.0683,-0.0718,-0.0648,-0.0646,-0.0746,-0.0757,-0.0767,-0.0732,0,0,0,0,0]}]]